Other Public Products
Issued by NWS Grand Forks, ND

Home | Current Version | Previous Version | Graphics & Text | Print | Product List | Glossary On
Versions: 1 2 3 4 5 6 7 8 9 10 11 12 13 14 15 16 17 18 19 20 21 22 23 24 25 26 27 28 29 30 31 32 33 34 35 36 37 38 39 40 41 42 43 44 45 46 47 48 49 50
000
FPUS83 KFGF 010110
OPUFGF
PRAIRIE TO PINES WEATHER ROUNDUP
NATIONAL WEATHER SERVICE EASTERN NORTH DAKOTA/GRAND FORKS ND
800 PM CDT SUN AUG 31 2014

 **SATELLITE DATA USED TO AUGMENT SKY COVER AT AUTOMATED STATIONS**
 *****  WEATHER ACROSS EASTERN NORTH DAKOTA  *****

CITY           SKY/WX    TMP DP  RH WIND       PRES   REMARKS
GRAND FORKS    MOCLDY    68  60  75 W6        29.59F
GRAND FORKS AF MOCLDY    66  60  80 NW7       29.61F
GRAND CITY NWS   N/A     66 N/A N/A NW5         N/A
BUXTON         NOT AVBL
DEVILS LAKE    CLEAR     66  54  63 NW8       29.64S
FARGO          MOCLDY    69  63  81 W7        29.60F
WAHPETON ARPT  MOCLDY    66  63  88 W5        29.61S
$$

 *****  WEATHER ACROSS CENTRAL AND WESTERN NORTH DAKOTA  *****

CITY           SKY/WX    TMP DP  RH WIND       PRES   REMARKS
JAMESTOWN      PTCLDY    65  59  81 NW5       29.65F
BISMARCK       LGT RAIN  65  57  75 SW7       29.71R
MINOT          PTCLDY    65  53  65 NW6       29.69R
MINOT AFB      PTCLDY    62  58  85 NW3       29.69R
GARRISON         N/A     68  52  56 N5        29.71R
WILLISTON      MOCLDY    62  54  74 N14       29.75R
DICKINSON      CLOUDY    61  53  75 SW14      29.73S
HETTINGER      LGT RAIN  59  50  72 SE13      29.79R
$$

 *****  OTHER OBSERVATIONS NORTHEAST NORTH DAKOTA  *****

CITY           SKY/WX    TMP DP  RH WIND       PRES   REMARKS
WALHALLA         N/A     66  63  88 N5        29.62R
LANGDON        MOCLDY    66  55  68 NW8       29.64R
CAVALIER       FAIR      66  59  77 N7        29.61R
GRAFTON        MOCLDY    66  61  82 N5        29.60S
CANDO          FAIR      63  54  72 NW7       29.67R
FORT TOTTEN      N/A     66  53  63 NW5       29.95S
ROLLA          FAIR      59  54  82 NW8       29.69R
RUGBY          FAIR      63  54  72 NW7       29.69R
 ***** THE ABOVE OBSERVATIONS ARE NON NWS ARE NOT QUALITY
        CONTROLLED AND MAY MIS-REPORT RAIN FOR SNOW...
$$

 *****  OTHER OBSERVATIONS SOUTHEAST NORTH DAKOTA *****

CITY           SKY/WX    TMP DP  RH WIND       PRES   REMARKS
COOPERSTOWN    NOT AVBL
VALLEY CITY    FAIR      66  63  88 NW7       29.65S
OAKES            N/A     68  66  94 W6        29.65R
GWINNER        CLEAR     70  66  88 SW5       29.65R
SHEYENNE NWR     N/A     70  64  80 W3        29.95
BUFFALO        NOT AVBL
WYNDMERE       NOT AVBL
 ***** THE ABOVE OBSERVATIONS ARE NON NWS ARE NOT QUALITY
       CONTROLLED AND MAY MIS-REPORT RAIN FOR SNOW...
$$

  *****  WEATHER ACROSS NORTHERN MINNESOTA  *****

CITY           SKY/WX    TMP DP  RH WIND       PRES   REMARKS
FLAG ISLAND    MOCLDY    64  63  94 W10       29.52S
WARROAD        CLOUDY    64  61  88 W12       29.57R
ROSEAU         MOCLDY    64  61  88 W12G17    29.58R
HALLOCK        MOCLDY    66  63  88 NW3       29.60R
THF RVR FALLS  MOCLDY    66  61  82 W6        29.59F
HALSTAD          N/A     67  63  85 W6          N/A
FOSSTON        MOCLDY    64  61  88 W3        29.60F
BAUDETTE       CLOUDY    65  62  90 W6        29.56S
WASKISH        MOCLDY    66  64  94 SW8       29.59S
CROOKSTON      MOCLDY    66  61  82 NW9       29.59F
$$
  *****  WEATHER ACROSS CENTRAL AND WEST MINNESOTA  *****

CITY           SKY/WX    TMP DP  RH WIND       PRES   REMARKS
BEMIDJI        CLOUDY    65  62  88 SW6       29.60F
PARK RAPIDS    MOCLDY    65  62  90 W6        29.62F
WADENA         MOCLDY    66  63  88 CALM      29.63S
DETROIT LAKES  PTCLDY    66  63  88 CALM      29.64R
MOORHEAD       MOCLDY    70  66  88 W7        29.61S
FERGUS FALLS   MOCLDY    68  63  83 CALM      29.62S
ELBOW LAKE     CLOUDY    67  64  88 CALM      29.63F
MORRIS MN      CLOUDY    70  66  88 W6        29.63F
STAPLES        CLOUDY    68  63  83 CALM      29.63S
WHEATON        CLOUDY    66  63  88 NW3       29.64F
$$
  *****  WEATHER ELSEWHERE ACROSS MINNESOTA  *****

CITY           SKY/WX    TMP DP  RH WIND       PRES   REMARKS
DULUTH         NOT AVBL
INTRNTL FALLS  MOCLDY    65  63  93 W8        29.57F
ELY            MOCLDY    63  57  82 SE7       29.64F
CLOQUET        MOCLDY    64  63  94 CALM      29.62F
BRAINERD       CLOUDY    69  64  84 W7        29.63F
HIBBING        TSTM      67  64  90 W5        29.62S FOG
ALEXANDRIA     PTCLDY    69  63  81 CALM      29.65F
SAINT CLOUD    CLOUDY    67  64  90 SE5       29.63S
MINNEAPOLIS    MOCLDY    78  67  68 SW15      29.62F
$$

  *****  WEATHER ACROSS SOUTH DAKOTA  *****

CITY           SKY/WX    TMP DP  RH WIND       PRES   REMARKS
SIOUX FALLS    CLOUDY    66  60  81 N9        29.62F
BROOKINGS      NOT AVBL
WATERTOWN      MOCLDY    66  58  75 NW9       29.67S
HURON          CLOUDY    66  61  84 CALM      29.66F
SISSETON         N/A     66  63  90 W5        29.63S
ABERDEEN       MOCLDY    67  63  87 SW3       29.66S
MITCHELL       CLOUDY    69  62  78 CALM      29.65F
PIERRE         MOCLDY    66  61  84 NW7       29.68S
MOBRIDGE       MOCLDY    67  63  87 CALM      29.68S
RAPID CITY     CLOUDY    61  56  83 CALM      29.83S
$$

  *****  SOME WEATHER IN NEARBY STATES *****

CITY           SKY/WX    TMP DP  RH WIND       PRES   REMARKS
GLASGOW MT     MOCLDY    67  49  52 NW7       29.74R
GREAT FALLS MT CLOUDY    64  37  36 W12       29.88R
CHEYENNE WY    CLEAR     68  37  32 W21G26    29.98R
SCOTTSBLUFF NE PTCLDY    65  48  54 NW17G24   29.87R
OMAHA NE       TSTM      73  67  81 SW12G21   29.71R
DES MOINES IA  CLOUDY    82  71  69 S17       29.67F
DAVENPORT IA   CLEAR     78  68  71 S10       29.80F
CHICAGO IL     PTCLDY    80  67  64 SW6       29.88F
EAU CLAIRE WI  MOCLDY    78  70  76 SE14      29.65F
LA CROSSE WI   LGT RAIN  71  64  78 SW6       29.74S
$$

  *****  SOME NATIONAL WEATHER *****

CITY           SKY/WX    TMP DP  RH WIND       PRES   REMARKS
LA GUARDIA NY  MOCLDY    78  73  84 S7        30.00R
RALEIGH NC     MOCLDY    81  70  69 CALM      30.08R
ATLANTA GA     MOCLDY    83  69  62 CALM      30.11S
NEW ORLEANS LA MOCLDY    84  74  71 S6        30.03S HX  91
OKLAHOMA CITY  PTCLDY    89  66  46 S24G33    29.77F HX  91
ALBUQUERQUE NM PTCLDY    89  36  15 W15G25    29.98S
SALT LAKE CITY SUNNY     73  32  22 N8        29.99F
LOS ANGELES CA MOSUNNY   75  67  76 W9        29.78R
BOISE ID       SUNNY     73  41  31 N10       29.96S
SEATTLE WA     PTSUNNY   69  49  48 SW3       30.04F
$$

*** WEATHER ACROSS MANITOBA...SASKATCHEWAN AND ONTARIO ***
                ***ONTARIO***

CITY           SKY/WX    TMP DP  RH WIND       PRES   REMARKS
GERALDTON      MOCLDY    61  50  67 S3        29.80F
THUNDER BAY    MOCLDY    61  55  82 E10       29.74F
SIOUX LOOKOUT  LGT RAIN  63  57  82 SE10G21   29.56F
TORONTO        PTCLDY    75  63  64 W7        29.94S
BIG TROUT LK   CLOUDY    61  54  77 SE9       29.68S
PICKLE LAKE    LGT RAIN  57  55  94 SE15G21   29.66F
DRYDEN         MOCLDY    64  59  82 S14G21    29.53F
KENORA         CLOUDY    64  63  94 SW7       29.52S
$$
                *** MANITOBA***

CITY           SKY/WX    TMP DP  RH WIND       PRES   REMARKS
BRANDON        CLOUDY    63  55  77 E5        29.66R
DAUPHIN        CLEAR     63  59  88 SE3       29.63R
ISLAND LAKE    MOCLDY    59  59 100 CALM      29.60S
PILOT MOUND      N/A     61  55  82 NW5         N/A
THE PAS        PTCLDY    66  52  59 SW3       29.58R
THOMPSON       PTCLDY    61  55  82 NW2       29.54S
WINNIPEG       MOCLDY    63  61  94 NW7       29.59R
LYNN LAKE      PTCLDY    61  52  72 MISG      29.53R
CHURCHILL      CLOUDY    50  48  93 E15G23    29.62R
GILLAM         DRIZZLE   57  57 100 S7        29.56S
$$
                ***SASKATCHEWAN***

CITY           SKY/WX    TMP DP  RH WIND       PRES   REMARKS
ESTEVAN        CLOUDY    61  52  72 W6        29.71S
KINDERSLEY     PTCLDY    66  39  37 NW10G18   29.75R
LLOYDMINSTER   MOCLDY    61  39  44 NW9G18    29.72R
PRINCE ALBERT  MOCLDY    61  50  67 W6        29.65R
REGINA         NOT AVBL


USA.gov is the U.S. government's official web portal to all federal, state and local government web resources and services.